Overview Statistics Trail Chart Weather Telemetry Raw packets
 

This is the latest recevied weather packets stored in our database for station/object IU1OLT-6. If no packets are shown the sender has not sent any weather packets the latest 10 day(s).

<< 12 13 14 15 16 17 18 >>
Time Temp. Humidity Pressure Rain* Wind** Luminosity Snow
1788378370 16.11° C 61% 1016.1 hPa 0 mm - - -
1788377434 16.11° C 66% 1016 hPa 0 mm - - -
1788376450 16.11° C 60% 1015.9 hPa 0 mm - - -
1788375538 16.11° C 63% 1016 hPa 0 mm - - -
1788374578 16.11° C 69% 1015.7 hPa 0 mm - - -
1788373666 16.11° C 68% 1015.6 hPa 0 mm - - -
1788372610 16.11° C 71% 1015.5 hPa 0 mm - - -
1788371650 15.56° C 81% 1015.5 hPa 0 mm - - -
1788370690 15.56° C 85% 1015.4 hPa 0 mm - - -
1788369730 16.11° C 92% 1015.4 hPa 0 mm - - -
1788368770 16.11° C 94% 1015.4 hPa 0 mm - - -
1788367810 16.11° C 94% 1015.5 hPa 0 mm - - -
1788366850 16.67° C 91% 1015.4 hPa 0 mm - - -
1788365891 17.78° C 85% 1015.4 hPa 0 mm - - -
1788364978 17.78° C 89% 1015.6 hPa 0 mm - - -
1788364066 16.67° C 92% 1015.5 hPa 0 mm - - -
1788363106 16.67° C 93% 1015.6 hPa 0 mm - - -
1788362146 17.22° C 89% 1015.7 hPa 0 mm - - -
1788361186 17.22° C 92% 1015.9 hPa 0 mm - - -
1788360226 16.67° C 89% 1015.9 hPa 0 mm - - -
1788359267 17.22° C 86% 1015.7 hPa 0 mm - - -
1788358210 17.22° C 81% 1015.8 hPa 0 mm - - -
1788357251 17.22° C 84% 1016 hPa 0 mm - - -
1788356291 16.67° C 85% 1016 hPa 0 mm - - -
1788355331 16.67° C 90% 1016.2 hPa 0 mm - - -

* Rain latest hour (hover to see other rain measurements)
** Current wind speed in m/s (hover to see current wind gust speed)